When you browse on this site, cookies collect data to enhance your experience and personalize the content and advertising you see.
Visit our Privacy Policy to learn more. By continuing to use the site, you agree to this use of cookies and data.
  • In Hungary
  • List of Countries
  • For 7 days
  • Water Temperature
  • Weather Map
  • News
  • Weather Widgets
  • user-avatar
    Login

    Hourly Weather Venecia

    Today, 9 December, Monday

    Time Temperature Precipitation Wind Pressure Humidity
    00:00 +16°C° 0 mm 0 mps 644 mmHg 97%
    01:00 +16°C° 0 mm 0 mps 644 mmHg 97%
    02:00 +15°C° 0 mm 0 mps 643 mmHg 97%
    03:00 +15°C° 0 mm 0 mps 643 mmHg 97%
    04:00 +15°C° 0 mm 0 mps 643 mmHg 97%
    05:00 +15°C° 0 mm 0 mps 643 mmHg 97%
    06:00 +16°C° 0 mm 0 mps 644 mmHg 96%
    07:00 +16°C° 0 mm 0 mps 644 mmHg 95%
    08:00 +18°C° 0 mm 0 mps 645 mmHg 85%
    09:00 +20°C° 0 mm 0 mps 646 mmHg 75%
    10:00 +25°C° 0 mm 1 mps 646 mmHg 65%
    11:00 +26°C° 0 mm 1 mps 646 mmHg 60%
    12:00 +28°C° 0 mm 1 mps 645 mmHg 54%
    13:00 +29°C° 0 mm 1 mps 645 mmHg 49%
    14:00 +27°C° 0.5 mm 0 mps 644 mmHg 53%
    15:00 +26°C° 0.5 mm 0 mps 644 mmHg 57%
    16:00 +25°C° 0.5 mm 0 mps 643 mmHg 61%
    17:00 +23°C° 0.3 mm 0 mps 643 mmHg 71%
    18:00 +23°C° 0.3 mm 1 mps 643 mmHg 80%
    19:00 +21°C° 0.3 mm 1 mps 643 mmHg 90%
    20:00 +20°C° 0.1 mm 1 mps 643 mmHg 91%
    21:00 +18°C° 0.1 mm 0 mps 644 mmHg 93%
    22:00 +18°C° 0.1 mm 0 mps 644 mmHg 94%
    23:00 +18°C° 0.1 mm 0 mps 644 mmHg 94%

    Tomorrow, 10 December, Tuesday

    Time Temperature Precipitation Wind Pressure Humidity
    00:00 +17°C° 0.1 mm 0 mps 644 mmHg 94%
    01:00 +17°C° 0.1 mm 0 mps 643 mmHg 94%
    02:00 +17°C° 0.1 mm 0 mps 643 mmHg 95%
    03:00 +17°C° 0.1 mm 0 mps 643 mmHg 96%
    04:00 +17°C° 0.1 mm 0 mps 643 mmHg 97%
    05:00 +17°C° 0.1 mm 0 mps 643 mmHg 96%
    06:00 +17°C° 0.1 mm 0 mps 644 mmHg 96%
    07:00 +18°C° 0.1 mm 0 mps 644 mmHg 96%
    08:00 +19°C° 0.3 mm 0 mps 645 mmHg 90%
    09:00 +21°C° 0.3 mm 0 mps 646 mmHg 84%
    10:00 +23°C° 0.3 mm 0 mps 646 mmHg 78%
    11:00 +24°C° 0.7 mm 0 mps 646 mmHg 74%
    12:00 +25°C° 0.7 mm 0 mps 646 mmHg 70%
    13:00 +26°C° 0.7 mm 0 mps 645 mmHg 66%
    14:00 +25°C° 0.9 mm 0 mps 645 mmHg 70%
    15:00 +24°C° 0.9 mm 0 mps 644 mmHg 74%
    16:00 +24°C° 0.9 mm 0 mps 643 mmHg 77%
    17:00 +22°C° 1.2 mm 0 mps 643 mmHg 84%
    18:00 +22°C° 1.2 mm 1 mps 643 mmHg 90%
    19:00 +20°C° 1.2 mm 1 mps 643 mmHg 96%
    20:00 +20°C° 0.7 mm 1 mps 644 mmHg 96%
    21:00 +17°C° 0.7 mm 0 mps 644 mmHg 97%
    22:00 +17°C° 0.7 mm 0 mps 644 mmHg 97%
    23:00 +17°C° 0.1 mm 0 mps 644 mmHg 97%

    Day after tomorrow, 11 December, Wednesday

    Time Temperature Precipitation Wind Pressure Humidity
    00:00 +17°C° 0.1 mm 0 mps 644 mmHg 97%
    01:00 +16°C° 0.1 mm 0 mps 643 mmHg 97%
    02:00 +16°C° 0.1 mm 0 mps 643 mmHg 98%
    03:00 +16°C° 0.1 mm 0 mps 643 mmHg 98%
    04:00 +16°C° 0.1 mm 0 mps 643 mmHg 98%
    05:00 +17°C° 0 mm 0 mps 644 mmHg 98%
    06:00 +17°C° 0 mm 0 mps 644 mmHg 98%
    07:00 +17°C° 0 mm 0 mps 645 mmHg 98%
    08:00 +19°C° 0.1 mm 0 mps 645 mmHg 92%
    09:00 +20°C° 0.1 mm 0 mps 646 mmHg 86%
    10:00 +21°C° 0.1 mm 0 mps 646 mmHg 80%
    11:00 +23°C° 0.4 mm 0 mps 646 mmHg 75%
    12:00 +24°C° 0.4 mm 0 mps 646 mmHg 69%
    13:00 +25°C° 0.4 mm 0 mps 646 mmHg 64%
    14:00 +25°C° 0.7 mm 0 mps 645 mmHg 68%
    15:00 +24°C° 0.7 mm 0 mps 645 mmHg 72%
    16:00 +25°C° 0.7 mm 1 mps 644 mmHg 76%
    17:00 +24°C° 0.9 mm 1 mps 644 mmHg 83%
    18:00 +20°C° 0.9 mm 0 mps 644 mmHg 89%
    19:00 +18°C° 0.9 mm 0 mps 643 mmHg 96%
    20:00 +18°C° 0.7 mm 0 mps 644 mmHg 96%
    21:00 +18°C° 0.7 mm 0 mps 644 mmHg 97%
    22:00 +17°C° 0.7 mm 0 mps 644 mmHg 97%
    23:00 +17°C° 1.1 mm 0 mps 644 mmHg 97%

    12 December, Thursday

    Time Temperature Precipitation Wind Pressure Humidity
    00:00 +17°C° 1.1 mm 0 mps 644 mmHg 98%
    01:00 +17°C° 1.1 mm 0 mps 644 mmHg 98%
    02:00 +17°C° 1.3 mm 0 mps 644 mmHg 98%
    03:00 +17°C° 1.3 mm 0 mps 643 mmHg 98%
    04:00 +17°C° 1.3 mm 0 mps 643 mmHg 99%
    05:00 +17°C° 1.4 mm 0 mps 644 mmHg 99%
    06:00 +17°C° 1.4 mm 0 mps 644 mmHg 99%
    07:00 +17°C° 1.4 mm 0 mps 644 mmHg 99%
    08:00 +18°C° 0.7 mm 0 mps 645 mmHg 96%
    09:00 +18°C° 0.7 mm 0 mps 645 mmHg 94%
    10:00 +19°C° 0.7 mm 0 mps 645 mmHg 91%
    11:00 +21°C° 0.3 mm 0 mps 645 mmHg 85%
    12:00 +22°C° 0.3 mm 0 mps 645 mmHg 78%
    13:00 +23°C° 0.3 mm 0 mps 645 mmHg 71%
    14:00 +22°C° 0.6 mm 0 mps 644 mmHg 77%
    15:00 +22°C° 0.6 mm 0 mps 644 mmHg 83%
    16:00 +21°C° 0.6 mm 0 mps 643 mmHg 89%
    17:00 +20°C° 0.4 mm 0 mps 643 mmHg 92%
    18:00 +18°C° 0.4 mm 0 mps 643 mmHg 94%
    19:00 +19°C° 0.4 mm 1 mps 643 mmHg 96%
    20:00 +17°C° 0 mm 0 mps 643 mmHg 96%
    21:00 +16°C° 0 mm 0 mps 644 mmHg 96%
    22:00 +16°C° 0 mm 0 mps 644 mmHg 97%
    23:00 +16°C° 0 mm 0 mps 644 mmHg 97%

    13 December, Friday

    Time Temperature Precipitation Wind Pressure Humidity
    00:00 +15°C° 0 mm 0 mps 644 mmHg 97%
    01:00 +15°C° 0 mm 0 mps 643 mmHg 97%
    02:00 +15°C° 0 mm 0 mps 643 mmHg 97%
    03:00 +15°C° 0 mm 0 mps 643 mmHg 97%
    04:00 +15°C° 0 mm 0 mps 642 mmHg 98%
    05:00 +15°C° 0 mm 0 mps 643 mmHg 97%
    06:00 +15°C° 0 mm 0 mps 643 mmHg 97%
    07:00 +16°C° 0 mm 0 mps 644 mmHg 96%
    08:00 +17°C° 0 mm 0 mps 644 mmHg 89%
    09:00 +19°C° 0 mm 0 mps 645 mmHg 82%
    10:00 +21°C° 0 mm 0 mps 646 mmHg 75%
    11:00 +22°C° 0.2 mm 0 mps 645 mmHg 69%
    12:00 +24°C° 0.2 mm 0 mps 645 mmHg 63%
    13:00 +25°C° 0.2 mm 0 mps 645 mmHg 57%
    14:00 +25°C° 0.3 mm 0 mps 644 mmHg 61%
    15:00 +24°C° 0.3 mm 0 mps 644 mmHg 64%
    16:00 +25°C° 0.3 mm 1 mps 643 mmHg 68%
    17:00 +23°C° 0.2 mm 1 mps 643 mmHg 76%
    18:00 +19°C° 0.2 mm 0 mps 643 mmHg 85%
    19:00 +17°C° 0.2 mm 0 mps 643 mmHg 94%
    20:00 +17°C° 0.1 mm 0 mps 643 mmHg 94%
    21:00 +16°C° 0.1 mm 0 mps 643 mmHg 95%
    22:00 +16°C° 0.1 mm 0 mps 644 mmHg 96%
    23:00 +16°C° 0.1 mm 0 mps 643 mmHg 96%

    14 December, Saturday

    Time Temperature Precipitation Wind Pressure Humidity
    00:00 +16°C° 0.1 mm 0 mps 643 mmHg 97%
    01:00 +15°C° 0.1 mm 0 mps 643 mmHg 97%
    02:00 +15°C° 0.1 mm 0 mps 643 mmHg 97%
    03:00 +15°C° 0.1 mm 0 mps 642 mmHg 97%
    04:00 +15°C° 0.1 mm 0 mps 642 mmHg 98%
    05:00 +15°C° 0 mm 0 mps 643 mmHg 97%
    06:00 +16°C° 0 mm 0 mps 643 mmHg 96%
    07:00 +16°C° 0 mm 0 mps 644 mmHg 96%
    08:00 +18°C° 0 mm 0 mps 645 mmHg 86%
    09:00 +20°C° 0 mm 0 mps 645 mmHg 77%
    10:00 +22°C° 0 mm 0 mps 646 mmHg 67%
    11:00 +24°C° 0.2 mm 0 mps 646 mmHg 63%
    12:00 +25°C° 0.2 mm 0 mps 646 mmHg 60%
    13:00 +26°C° 0.2 mm 0 mps 645 mmHg 56%
    14:00 +25°C° 0.5 mm 0 mps 645 mmHg 61%
    15:00 +25°C° 0.5 mm 0 mps 644 mmHg 66%
    16:00 +24°C° 0.5 mm 0 mps 643 mmHg 70%
    17:00 +22°C° 0.7 mm 0 mps 643 mmHg 79%
    18:00 +20°C° 0.7 mm 0 mps 643 mmHg 87%
    19:00 +20°C° 0.7 mm 1 mps 643 mmHg 96%
    20:00 +18°C° 0.7 mm 0 mps 644 mmHg 96%
    21:00 +17°C° 0.7 mm 0 mps 644 mmHg 97%
    22:00 +17°C° 0.7 mm 0 mps 645 mmHg 97%
    23:00 +17°C° 1 mm 0 mps 644 mmHg 97%
    Show more